Date String (YYYY-MM-DD hh:mm:ss) UTC,Instrument flags,Ambient pressure (hPa),Sample flow (lpm),Bypass flow (lpm),Sample temperature (°C),Ambient temperature (°C),ASC tube jacket temperature (°C),LED temperature (°C),Box temperature (°C),Sample RH (%),Span deviation,Mass concentration (μg/m³),Mass concentration (μg/m³),Mass concentration (μg/m³)
DateTimeUTC,F1_M11,P_M11,Q1_M11,Q2_M11,T1_M11,T2_M11,T3_M11,T4_M11,T5_M11,U1_M11,ZSPAN_M11,X0_M11,X2_M11,X1_M11
2022-01-07 09:00:00,,0816.0,4.99,0.00,22.0,21.3,00.0,31.1,23.6,09.4,0002.1,0011.78,0007.09,0006.51
2022-01-07 09:01:00,,0816.0,5.01,0.00,22.0,21.2,00.0,31.1,23.6,09.4,0002.1,0012.04,0007.33,0006.75
2022-01-07 09:02:00,,0815.9,5.00,0.00,21.9,21.2,00.0,31.1,23.5,09.5,0002.5,0012.41,0007.63,0007.04
2022-01-07 09:03:00,,0815.8,5.00,0.00,21.9,21.3,00.0,31.0,23.5,10.5,0002.3,0012.63,0007.86,0007.27
2022-01-07 09:04:00,,0815.8,4.99,0.00,22.0,22.1,00.0,31.1,23.8,10.6,0002.1,0012.58,0007.87,0007.32
2022-01-07 09:05:00,,0815.7,5.00,0.00,22.2,23.0,00.0,31.1,24.1,10.8,0002.1,0012.45,0007.82,0007.29
2022-01-07 09:06:00,,0815.7,4.99,0.00,22.3,23.2,00.0,31.2,24.2,11.1,0002.4,0012.33,0007.74,0007.24
2022-01-07 09:07:00,,0815.8,5.00,0.00,22.3,22.9,00.0,31.2,24.2,11.3,0002.0,0011.87,0007.50,0007.03
2022-01-07 09:08:00,,0815.9,5.00,0.00,22.3,22.5,00.0,31.2,24.0,11.0,0002.1,0011.41,0007.31,0006.85
2022-01-07 09:09:00,,0816.0,5.01,0.00,22.2,22.0,00.0,31.2,23.8,10.3,0002.0,0011.36,0007.37,0006.89
2022-01-07 09:10:00,,0815.9,5.00,0.00,22.1,21.5,00.0,31.2,23.5,09.0,0001.8,0011.71,0007.72,0007.22
2022-01-07 09:11:00,,0815.9,5.01,0.00,21.9,21.1,00.0,31.1,23.3,09.2,0001.9,0011.67,0007.69,0007.19
2022-01-07 09:12:00,,0815.8,5.00,0.00,21.8,20.8,00.0,31.1,23.2,10.3,0001.5,0012.08,0007.57,0007.08
2022-01-07 09:13:00,,0815.7,5.00,0.00,21.8,20.8,00.0,31.0,23.2,11.1,0001.5,0011.93,0007.32,0006.86
2022-01-07 09:14:00,,0815.6,5.00,0.00,21.7,20.8,00.0,31.0,23.2,11.8,0001.5,0011.74,0007.16,0006.69
2022-01-07 09:15:00,,0816.0,5.00,0.00,21.7,21.3,00.0,31.0,23.3,12.1,0001.7,0011.56,0006.99,0006.51
2022-01-07 09:16:00,,0816.0,5.01,0.00,21.9,22.3,00.0,31.0,23.6,12.0,0001.8,0011.44,0006.88,0006.39
2022-01-07 09:17:00,,0816.0,5.00,0.00,22.0,23.0,00.0,31.1,24.0,11.6,0001.4,0011.53,0006.94,0006.41
2022-01-07 09:18:00,,0815.7,5.00,0.00,22.1,22.9,00.0,31.1,24.0,11.6,0001.5,0011.60,0006.98,0006.44
2022-01-07 09:19:00,,0815.8,5.01,0.00,22.2,22.6,00.0,31.1,23.9,11.8,0001.6,0011.36,0006.85,0006.33
2022-01-07 09:20:00,,0815.8,5.00,0.00,22.1,22.3,00.0,31.1,23.9,12.0,0001.9,0011.00,0006.62,0006.12
2022-01-07 09:21:00,,0815.9,5.01,0.00,22.1,22.0,00.0,31.1,23.8,12.2,0002.5,0010.38,0006.16,0005.70
2022-01-07 09:22:00,,0816.0,4.99,0.00,22.0,21.8,00.0,31.1,23.7,12.3,0002.6,0009.73,0005.76,0005.33
2022-01-07 09:23:00,,0816.0,5.02,0.00,22.0,21.6,00.0,31.1,23.6,11.9,0003.1,0008.97,0005.61,0005.19
2022-01-07 09:24:00,,0816.0,4.99,0.00,22.0,21.4,00.0,31.1,23.5,12.1,0003.0,0008.80,0005.56,0005.14
2022-01-07 09:25:00,,0815.9,5.01,0.00,21.9,21.3,00.0,31.0,23.5,12.3,0003.1,0008.80,0005.55,0005.12
2022-01-07 09:26:00,,0815.9,4.99,0.00,21.9,21.3,00.0,31.0,23.5,12.4,0003.0,0008.72,0005.51,0005.10
2022-01-07 09:27:00,,0815.8,4.99,0.00,21.9,21.2,00.0,31.0,23.5,12.4,0002.7,0008.63,0005.46,0005.07
2022-01-07 09:28:00,,0815.8,5.01,0.00,21.9,21.2,00.0,31.0,23.5,12.5,0003.1,0008.34,0005.28,0004.94
2022-01-07 09:29:00,,0815.8,5.00,0.00,21.9,21.1,00.0,31.0,23.5,12.6,0003.4,0008.23,0005.19,0004.84
2022-01-07 09:30:00,,0815.7,4.99,0.00,21.9,21.3,00.0,31.0,23.5,12.5,0003.3,0008.26,0005.19,0004.81
2022-01-07 09:31:00,,0815.7,5.01,0.00,22.0,22.0,00.0,31.0,23.8,12.4,0003.1,0008.31,0005.20,0004.80
2022-01-07 09:32:00,,0815.7,5.00,0.00,22.1,22.8,00.0,31.1,24.0,12.1,0002.6,0008.37,0005.22,0004.83
2022-01-07 09:33:00,,0815.8,5.00,0.00,22.2,23.1,00.0,31.1,24.1,11.9,0002.2,0008.44,0005.28,0004.87
2022-01-07 09:34:00,,0816.0,5.00,0.00,22.2,22.6,00.0,31.1,24.0,11.9,0002.1,0008.77,0005.29,0004.85
2022-01-07 09:35:00,,0816.0,5.00,0.00,22.1,22.2,00.0,31.1,23.8,11.7,0002.4,0009.03,0005.38,0004.91
2022-01-07 09:36:00,,0816.0,5.00,0.00,22.1,21.9,00.0,31.1,23.7,11.7,0001.9,0009.16,0005.49,0005.00
2022-01-07 09:37:00,,0815.9,4.99,0.00,22.1,21.7,00.0,31.1,23.7,11.8,0001.7,0009.34,0005.58,0005.08
2022-01-07 09:38:00,,0815.9,5.01,0.00,22.0,21.6,00.0,31.1,23.7,12.1,0001.9,0009.51,0005.65,0005.12
2022-01-07 09:39:00,,0815.9,5.00,0.00,22.0,21.5,00.0,31.1,23.6,12.2,0001.8,0009.62,0005.71,0005.18
2022-01-07 09:40:00,,0815.7,4.99,0.00,22.0,21.4,00.0,31.1,23.6,12.2,0001.9,0009.66,0005.75,0005.23
2022-01-07 09:41:00,,0815.7,5.01,0.00,22.0,21.4,00.0,31.0,23.6,12.2,0001.8,0009.62,0005.73,0005.23
2022-01-07 09:42:00,,0815.7,4.99,0.00,21.9,21.3,00.0,31.0,23.6,12.1,0001.7,0009.63,0005.74,0005.24
2022-01-07 09:43:00,,0815.8,5.01,0.00,21.9,21.3,00.0,31.0,23.6,12.1,0002.1,0009.61,0005.73,0005.24
2022-01-07 09:44:00,,0815.8,5.01,0.00,21.9,21.2,00.0,31.0,23.6,11.9,0002.5,0009.60,0005.75,0005.25
2022-01-07 09:45:00,,0815.8,4.99,0.00,21.9,21.2,00.0,31.0,23.5,11.9,0002.4,0009.43,0005.72,0005.25
2022-01-07 09:46:00,,0815.8,5.00,0.00,21.9,21.2,00.0,31.0,23.5,11.8,0002.1,0009.26,0005.66,0005.21
2022-01-07 09:47:00,,0815.8,5.01,0.00,21.9,21.6,00.0,31.0,23.6,11.8,0002.5,0009.26,0005.63,0005.18
2022-01-07 09:48:00,,0815.8,4.99,0.00,22.1,22.5,00.0,31.1,23.9,11.5,0002.7,0009.38,0005.68,0005.19
2022-01-07 09:49:00,,0815.8,5.01,0.00,22.2,23.3,00.0,31.1,24.2,11.6,0002.5,0009.36,0005.73,0005.22
2022-01-07 09:50:00,,0815.7,5.00,0.00,22.3,23.1,00.0,31.1,24.2,11.6,0002.2,0009.36,0005.74,0005.25
2022-01-07 09:51:00,,0815.8,5.00,0.00,22.3,22.8,00.0,31.2,24.2,11.7,0002.0,0009.37,0005.76,0005.28
2022-01-07 09:52:00,,0815.8,5.01,0.00,22.3,22.6,00.0,31.2,24.1,11.7,0002.1,0009.46,0005.82,0005.32
2022-01-07 09:53:00,,0816.0,5.00,0.00,22.3,22.3,00.0,31.2,24.0,11.6,0002.4,0009.66,0005.91,0005.36
2022-01-07 09:54:00,,0816.1,4.99,0.00,22.3,22.1,00.0,31.2,23.9,11.7,0002.0,0009.76,0005.99,0005.40
2022-01-07 09:55:00,,0816.0,5.01,0.00,22.2,21.9,00.0,31.2,23.9,11.1,0001.9,0009.84,0006.05,0005.46
2022-01-07 09:56:00,,0816.0,4.99,0.00,22.2,21.7,00.0,31.2,23.8,11.0,0002.4,0009.82,0006.13,0005.54
2022-01-07 09:57:00,,0815.9,4.99,0.00,22.1,21.6,00.0,31.2,23.7,11.5,0002.9,0010.46,0006.19,0005.58
2022-01-07 09:58:00,,0815.8,5.00,0.00,22.1,21.5,00.0,31.2,23.7,11.8,0002.8,0010.46,0006.17,0005.57
2022-01-07 09:59:00,,0815.8,5.00,0.00,22.1,21.4,00.0,31.2,23.7,11.5,0002.9,0010.53,0006.12,0005.56
